This demonstration page uses our WeatherBlox Daily Observations layout. Learn more.

Left ArrowRight Arrow

39.12711, -84.51439

Hourly Observations for October 27, 2018

Temp ( °F °C ) Dew Point ( °F °C ) Humidity (%) Winds ( mph kmh ) Pressure ( in mb ) Visibility ( mi km ) Precip ( " mm )
12:53 am 00:53 Cloudy 48 8.9 47 8.3 96 96 NNW 6 9 29.66 1004 8 13 N/A
1:53 am 01:53 Cloudy 48 8.9 47 8.3 96 96 WNW 7 11 29.66 1004 7 11 N/A
2:53 am 02:53 Cloudy with Mist and Fog 47 8.3 46 7.8 97 97 NW 5 7 29.67 1005 4 6 N/A
3:01 am 03:01 Cloudy with Mist and Fog 47 8.3 46 7.8 97 97 NNW 6 9 29.71 1006 4 6 N/A
3:21 am 03:21 Cloudy with Mist and Fog 47 8.3 46 7.8 97 97 NW 5 7 29.71 1006 4 6 N/A
3:53 am 03:53 Cloudy with Mist and Fog 47 8.3 46 7.8 97 97 NW 6 9 29.67 1005 6 10 N/A
4:53 am 04:53 Cloudy 47 8.3 45 7.2 93 93 WNW 7 11 29.68 1005 10 16 N/A
5:53 am 05:53 Cloudy 47 8.3 45 7.2 93 93 WNW 6 9 29.70 1006 10 16 N/A
6:53 am 06:53 Cloudy with Light Rain 47 8.3 45 7.2 93 93 WNW 9 15 29.72 1006 8 13 N/A
7:53 am 07:53 Cloudy with Light Rain 47 8.3 45 7.2 93 93 WNW 8 13 29.73 1007 3 5 0.01 0.25
8:16 am 08:16 Cloudy with Light Rain 46 7.8 45 7.2 96 96 WNW 10 17 29.77 1008 5 8 N/A
8:53 am 08:53 Cloudy 46 7.8 45 7.2 96 96 WNW 9 15 29.76 1008 8 13 N/A
9:53 am 09:53 Cloudy with Mist and Fog 46 7.8 44 6.7 93 93 NW 7 11 29.78 1008 6 10 N/A
10:30 am 10:30 Cloudy 46 7.8 44 6.7 93 93 WNW 6 9 29.83 1010 7 11 N/A
10:53 am 10:53 Cloudy 46 7.8 44 6.7 93 93 WNW 6 9 29.79 1009 8 13 N/A
11:53 am 11:53 Cloudy 47 8.3 44 6.7 90 90 WNW 6 9 29.81 1009 8 13 N/A
12:53 pm 12:53 Cloudy 48 8.9 44 6.7 86 86 NW 8 13 29.81 1010 10 16 N/A
1:11 pm 13:11 Cloudy 48 8.9 44 6.7 86 86 W 7 11 29.83 1010 10 16 N/A
1:53 pm 13:53 Cloudy with Light Rain 49 9.4 46 7.8 90 90 W 10 17 29.81 1009 8 13 N/A
2:08 pm 14:08 Cloudy with Light Rain 49 9.4 46 7.8 90 90 W 9 15 29.83 1010 8 13 N/A
2:25 pm 14:25 Cloudy with Light Rain 48 8.9 45 7.2 89 89 W 12 19 29.83 1010 8 13 0.01 0.25
2:53 pm 14:53 Cloudy with Light Rain 49 9.4 45 7.2 86 86 W 8 13 29.81 1010 10 16 0.01 0.25
3:53 pm 15:53 Cloudy 49 9.4 45 7.2 86 86 VRB 5 7 29.83 1010 10 16 0.01 0.25
4:53 pm 16:53 Cloudy with Light Rain 49 9.4 45 7.2 86 86 VRB 3 6 29.84 1011 9 14 N/A
5:53 pm 17:53 Cloudy with Light Rain 48 8.9 45 7.2 89 89 NW 6 9 29.85 1011 10 16 0.01 0.25
6:00 pm 18:00 Cloudy 48 8.9 45 7.2 89 89 NW 3 6 29.88 1012 10 16 N/A
6:53 pm 18:53 Cloudy 48 8.9 45 7.2 89 89 N N/A 29.86 1011 10 16 N/A
7:53 pm 19:53 Cloudy 49 9.4 44 6.7 83 83 N N/A 29.90 1012 10 16 N/A
8:53 pm 20:53 Cloudy 49 9.4 45 7.2 86 86 N N/A 29.91 1013 10 16 N/A
9:53 pm 21:53 Cloudy 49 9.4 45 7.2 86 86 WSW 3 6 29.91 1013 10 16 N/A
10:53 pm 22:53 Cloudy 48 8.9 45 7.2 89 89 SSW 3 6 29.92 1013 10 16 N/A
11:53 pm 23:53 Cloudy 49 9.4 44 6.7 83 83 W 6 9 29.93 1014 10 16 N/A

Powered by AerisWeather